GFSSGP_con_mucape_336.txt.gz
CAPE
195 0 0 0 0 22 6 7 81 38 58 274 199 236 228 236 213 6 44 103 328 1185 1810 1755 2072 2079 1563 1305 1358 1374 1599 1881 2021 2166 2384 2522 2556 2555 2533 2537 2567 2327 1757 1459 1348 1188 1148 1126 913
0 0 0 1 0 0 0 19 29 7 21 120 200 233 369 232 575 468 249 762 497 1541 2004 1863 2246 2222 1931 1544 1481 1673 1636 1659 1761 1764 1937 2241 2449 2495 2428 2486 2348 2044 1501 1220 1049 930 833 937 833
0 0 0 0 0 0 0 0 6 12 35 191 98 82 78 349 499 477 324 1060 1335 1696 2033 1823 2342 2331 2115 1626 1664 1834 1839 1878 1601 1638 1787 1932 2168 2308 2358 2395 2397 1960 1344 1146 1038 1069 1288 1042 1042
0 0 0 0 0 0 0 0 0 24 63 154 97 38 32 364 552 580 1161 1457 1493 1603 1893 2265 2498 2464 2299 1776 1654 2079 2007 1995 1969 1740 1769 1744 1739 2056 2027 2089 2119 2044 1501 1257 1233 1578 1564 1384 1366
0 0 0 0 0 0 0 0 0 41 97 127 93 41 43 524 745 1226 1335 1390 1286 1401 1868 1967 2597 2533 2379 1691 1480 2042 2168 2143 2050 1922 1790 1815 2058 1909 1775 1779 1520 1421 1543 1475 1485 1696 1812 1779 1632
0 0 0 0 0 0 0 0 0 34 142 118 66 53 63 465 1076 1272 1204 1140 1274 1401 1956 1793 2505 2601 2547 2299 1936 2189 2420 2415 2399 2256 2147 2131 2021 1910 1737 1632 1551 1485 1774 1748 1646 1681 1773 1819 1760
0 0 0 0 0 0 0 0 0 29 135 144 82 74 57 559 824 1110 965 1135 1475 1567 1892 2127 2203 2321 2504 2558 2234 2253 2497 2582 2541 2434 2350 2278 1955 1924 1742 1717 1562 1649 1863 1841 1785 1754 1848 1813 1631
0 0 0 0 0 0 0 0 0 56 114 105 86 86 95 411 863 932 1075 1221 1550 1730 1649 1908 2198 2153 1969 2095 2543 2392 2374 2541 2603 2469 2306 2351 2126 1869 1765 1942 1959 1663 1771 1623 1842 1855 1884 1866 1593
0 0 0 0 0 0 0 0 0 0 27 113 90 187 183 667 924 1002 1174 1237 1152 1402 1376 1536 2560 2068 1888 1928 2083 2493 1879 2045 2408 2304 2446 2370 1952 1669 1817 1807 1852 1615 1745 1750 1925 1901 1819 1844 1763
0 0 0 0 0 0 0 0 0 0 11 126 186 413 515 783 945 1063 1250 1254 1074 967 1302 1266 1517 2096 1674 1781 1839 2009 1702 1529 1725 1886 1909 2146 1824 1498 1568 1789 1935 1794 1664 2118 2202 2107 1953 1380 1076
0 0 0 0 0 0 0 0 403 14 0 10 166 457 726 861 953 1139 1200 1126 1183 856 750 933 1788 1907 1818 1429 1663 1810 1722 1712 1625 1749 1704 1724 1666 1341 1425 1436 1517 1571 2047 1675 1757 1998 1944 1215 803
0 0 0 0 0 0 0 0 553 595 657 616 447 651 813 957 994 1111 847 577 790 941 822 719 855 1014 1409 1149 1352 1304 1298 1268 1465 1441 1579 1460 1205 1132 918 929 951 1028 1119 1421 1586 1494 1253 1201 918
0 0 0 0 0 65 307 414 393 226 648 546 747 919 1043 990 1015 1048 954 391 137 442 978 815 778 788 799 862 882 974 978 1022 1082 1194 1210 1213 1043 792 689 558 537 578 642 706 885 1058 1010 889 807
0 0 0 0 97 235 391 385 311 356 578 991 1022 1144 1437 1315 1066 1064 1099 920 1683 1462 662 760 995 852 880 665 595 529 662 722 660 660 628 686 705 510 375 290 225 181 147 218 478 716 823 794 745
0 0 0 2 122 466 554 538 554 533 1023 1628 2064 2159 2156 2153 2062 1924 1896 1864 1718 1396 1251 1129 504 777 904 763 653 285 231 344 283 233 238 267 267 222 203 272 371 424 420 469 452 389 480 550 751
0 0 0 0 4 224 601 738 761 1065 1440 1814 1984 2110 2002 1948 1755 1687 1828 1906 1684 1418 925 569 563 613 792 1114 850 327 354 556 550 558 479 310 187 110 187 273 351 305 362 412 532 633 662 821 706
0 0 0 9 332 464 549 636 759 1290 1771 1868 1774 1644 1656 1818 1701 1551 1513 1386 1241 712 1011 880 726 690 826 753 718 526 376 352 302 250 247 215 176 68 97 124 152 265 326 382 407 401 388 462 324
0 0 0 10 54 550 604 876 1000 1431 1638 1603 1221 968 1070 1363 1478 1261 1196 589 236 212 285 252 480 568 461 727 798 903 693 504 66 5 48 31 8 12 10 48 19 13 79 327 184 161 125 136 239
0 0 16 78 200 423 367 370 450 1207 1412 1319 972 752 428 366 716 636 230 1 0 0 16 69 262 222 186 296 503 649 429 377 279 115 151 0 11 8 15 5 0 10 91 96 36 48 151 132 69
0 0 2 13 49 150 332 265 295 1109 605 1012 980 749 619 316 69 1 0 0 0 0 0 0 21 154 160 173 293 480 475 443 212 166 158 91 14 0 0 2 12 8 0 24 28 74 75 62 276
0 0 0 0 3 55 231 235 367 594 680 574 494 656 265 321 79 4 0 0 0 0 0 0 0 0 46 110 157 192 296 353 312 274 205 352 354 187 89 88 11 12 17 0 11 49 115 201 502
0 0 0 0 11 15 0 62 387 647 660 604 754 724 390 423 75 28 4 5 0 0 0 0 0 0 0 42 121 203 211 217 276 281 229 252 301 263 108 61 74 177 175 46 269 162 518 816 999
0 0 0 0 0 0 0 13 208 652 587 480 491 441 479 214 85 22 0 0 0 0 0 0 0 0 0 0 0 42 117 238 197 145 127 118 100 96 121 132 369 431 364 232 358 757 959 1001 1116
0 0 0 0 0 5 0 0 178 352 470 356 398 260 200 60 22 1 7 10 0 0 0 0 0 0 0 0 0 0 0 4 11 0 21 210 173 87 22 18 69 83 87 121 143 646 829 886 686
0 0 0 0 0 0 13 25 156 163 179 169 242 90 5 4 19 31 22 2 0 0 0 0 0 0 0 0 0 0 0 6 2 0 0 59 202 132 74 23 0 11 35 81 236 472 424 482 585
0 0 0 0 0 1 16 25 8 19 54 262 236 57 36 53 52 39 18 1 0 0 0 0 0 0 0 0 0 0 1 11 10 1 0 0 173 68 65 59 35 29 54 55 245 412 479 424 485
0 0 0 0 0 0 0 0 0 0 0 204 115 43 80 47 51 44 36 29 17 9 0 0 0 0 0 0 0 0 0 0 0 0 0 7 33 41 26 36 28 71 69 69 78 73 46 29 38
0 0 0 0 0 0 0 0 0 0 12 57 77 77 74 77 42 41 42 28 17 7 0 0 0 0 0 0 0 0 0 0 0 0 0 0 0 0 0 41 73 90 127 98 103 75 63 63 49
0 0 0 0 0 0 0 0 0 26 25 31 58 67 75 61 47 58 39 18 7 1 0 0 0 0 0 0 0 0 0 0 0 0 0 0 0 0 92 222 277 197 138 68 77 105 36 15 10
0 0 0 0 0 0 0 0 0 4 17 34 47 61 55 22 38 30 4 2 0 0 0 4 0 2 0 0 0 0 0 0 0 3 3 7 3 0 17 161 186 161 185 132 77 67 27 35 4

GFSSGP_con_mucape_339.txt.gz
CAPE
122 0 0 0 22 60 114 100 213 227 211 404 297 370 409 327 284 198 302 284 222 1301 1586 1563 2130 1866 1739 1810 2009 2144 2584 2915 3004 2952 2855 2727 2608 2597 2549 2617 2802 2840 2521 2279 1895 1659 1509 1651 1467
0 0 0 1 0 1 0 21 122 84 57 145 201 352 428 443 611 620 514 169 334 1480 1692 1216 2201 2067 1694 1743 1810 2060 2223 2486 2814 2941 2893 2814 2734 2738 2743 2771 2802 2545 2346 2014 1649 1534 1429 1515 1587
0 0 0 0 0 0 0 0 0 9 29 145 184 64 126 525 645 557 559 672 667 1633 1789 1506 2399 2165 1797 1537 1640 1826 2007 2113 2069 2311 2712 2870 2808 2753 2742 2808 2808 2295 1963 1688 1496 1685 1885 1887 1905
0 0 0 0 0 0 0 0 0 40 60 177 204 106 78 251 588 695 1146 1017 900 1448 1816 2124 2529 2357 2093 1570 1679 1945 1873 1999 2030 1940 2146 2429 2574 2836 2817 2812 2780 2554 2070 1676 1864 2058 2029 1810 1752
0 0 0 0 0 0 0 0 0 43 141 249 197 147 78 410 1198 1594 1616 1429 977 1382 1782 1983 2645 2610 2290 1668 1765 1948 2204 2390 2364 2163 1912 2020 2320 2356 2329 2490 2359 2329 2601 2470 2307 2292 2312 2141 1953
0 0 0 0 0 0 0 0 0 39 260 335 231 164 275 891 1581 1775 1739 1716 1479 1517 1834 2093 2517 2837 2584 2280 2320 2510 2532 2543 2580 2553 2485 2525 2544 2343 2163 2233 2231 2366 2457 2370 2286 2250 2270 2239 2128
0 0 0 0 0 0 0 0 0 142 356 379 124 55 175 1050 1713 1663 1616 1726 1596 1558 1899 2036 2115 2222 2713 2535 2434 2752 2751 2657 2665 2637 2601 2657 2657 2603 2407 2447 2373 2393 2429 2367 2259 2174 2158 2128 2065
0 0 0 0 0 0 0 0 0 113 275 236 169 111 441 910 1404 1511 1602 1502 1370 1465 1691 2008 2292 2059 1820 1469 2392 2575 2807 2868 2866 2748 2659 2724 2578 2382 2271 2392 2234 2202 2208 2132 2241 2226 2193 2193 2081
0 0 0 0 0 0 0 0 0 0 17 264 304 495 658 1262 1430 1310 1228 1230 1282 1421 1620 1618 1756 1897 2055 1912 1902 2369 2016 2273 2467 2346 2470 2343 1420 1402 1454 1607 1853 1936 2060 2160 2295 2289 2193 2153 2075
0 0 0 0 0 0 0 418 355 30 39 315 548 877 957 1175 1419 1371 1242 1202 1120 1227 1395 1448 1633 1719 1781 1828 1918 2057 1936 1545 1333 1289 1565 1770 1577 1665 1336 1469 1949 2017 1822 2397 2517 2495 2354 1875 595
0 0 0 0 0 0 0 449 338 609 500 755 651 850 1056 1187 1510 1564 1553 1445 1297 1034 1061 1273 1489 1593 1558 1549 1574 2075 2122 2141 2196 2169 2017 1747 1971 1857 1622 1351 1332 1353 1747 1481 1392 1534 1611 999 848
0 0 0 0 0 1 9 455 286 438 739 764 756 1108 1267 1435 1500 1192 627 745 1016 963 1145 1290 1185 1559 1642 1566 1326 1771 1929 1499 1440 1476 1583 1781 1506 1376 1188 1238 1068 998 934 953 1115 1071 1000 1101 1242
0 0 0 0 178 282 240 292 477 583 1107 1474 1429 1315 1335 1721 2007 2083 2268 2045 1933 1591 1562 1255 1235 1392 1651 1625 1446 1303 1286 950 849 874 879 876 960 828 757 724 720 618 569 601 623 666 757 794 993
0 0 0 0 162 241 251 374 575 1422 2044 2311 2414 2475 2388 2189 1806 1573 1562 1421 1349 1257 866 655 1174 1264 1377 1572 1258 914 915 801 651 597 509 587 664 722 535 469 456 502 472 414 389 404 498 645 792
0 0 24 112 241 364 261 623 817 1200 2195 2297 2354 2273 2073 1935 1650 1384 1257 1176 951 991 1277 1340 982 941 1122 1170 716 761 912 936 881 657 647 354 261 225 224 339 393 371 469 644 773 872 926 1106 1134
0 0 0 27 237 315 588 674 1131 1548 2065 1894 2125 1896 1615 1450 1186 893 716 703 808 444 574 759 903 1235 577 597 639 863 855 319 493 166 86 94 143 140 134 142 127 189 312 241 375 669 1120 1161 1373
0 0 0 65 119 440 684 751 1519 1635 1633 1508 1714 1823 1629 1041 501 272 142 284 308 595 794 556 909 1053 1566 851 771 718 588 362 269 264 190 202 141 126 114 95 124 78 55 72 160 299 810 757 978
0 0 9 105 161 534 638 928 1435 1402 1185 1156 895 1045 642 66 7 1 8 85 186 408 711 713 595 796 1178 982 739 495 522 436 442 418 350 296 131 121 10 15 87 62 75 38 84 165 172 591 702
0 12 25 123 312 618 813 1036 1049 1090 905 592 354 220 97 37 12 0 0 0 6 28 70 165 147 735 616 567 823 1020 859 1071 922 887 343 235 345 133 48 32 9 55 7 8 46 60 120 169 471
2 13 2 118 286 340 450 477 748 916 980 724 383 181 101 58 38 18 0 0 0 0 0 0 12 152 166 69 743 1150 1274 1164 1213 952 922 670 253 277 125 86 44 8 22 24 32 41 248 155 287
0 0 0 14 12 110 244 459 703 699 803 746 684 249 94 76 30 1 0 0 0 0 0 0 0 20 31 94 64 107 74 24 6 39 129 513 633 707 722 457 361 179 76 33 46 156 131 117 428
0 0 0 28 126 217 66 321 651 688 927 950 724 332 128 71 43 0 0 0 0 0 0 0 0 0 0 2 0 30 0 0 0 2 0 23 381 363 329 379 350 309 334 276 189 291 400 498 259
0 0 0 0 0 30 6 133 428 710 1049 746 805 430 179 62 48 33 0 0 0 0 0 0 0 0 0 1 0 0 43 31 0 0 27 111 140 553 380 203 107 85 126 32 50 76 202 505 439
0 0 0 0 0 67 13 70 361 573 597 772 410 415 133 92 50 8 2 0 0 0 0 1 4 0 0 16 49 75 97 90 72 17 0 2 41 145 406 201 123 25 34 43 76 72 90 173 471
0 0 0 0 0 33 8 222 421 225 246 471 438 401 107 38 30 8 3 0 0 0 1 1 0 0 8 35 48 47 51 60 50 42 0 0 0 149 281 307 251 104 40 2 6 63 216 197 468
0 0 0 0 0 4 10 235 256 42 24 155 537 166 24 20 12 6 0 0 0 1 5 0 0 0 0 15 19 22 19 0 0 0 0 0 0 1 184 345 415 228 90 5 89 131 120 233 329
0 0 0 0 0 0 0 38 3 0 0 130 228 58 5 28 48 22 5 12 18 16 5 0 0 1 1 0 0 0 0 3 8 17 20 17 29 25 23 147 361 389 355 66 78 118 134 176 236
0 0 0 0 0 0 0 16 81 0 3 33 88 32 28 37 45 21 29 27 11 3 0 17 48 61 46 31 12 0 1 8 10 18 21 3 1 3 3 16 182 256 227 209 227 122 215 186 175
0 0 0 0 0 0 0 3 0 6 22 24 23 34 49 56 42 18 5 1 0 0 0 42 65 74 59 50 28 8 10 12 9 4 2 2 5 10 3 3 21 90 75 225 210 140 167 131 201
0 0 0 0 0 0 0 0 0 0 5 18 30 51 39 9 1 2 0 0 0 0 22 63 79 55 42 29 22 7 0 0 0 3 2 0 1 30 35 28 6 6 2 48 75 138 192 103 87

GFSSGP_con_mucape_342.txt.gz
CAPE
98 1 0 40 205 276 96 103 133 98 153 159 396 345 154 195 216 460 923 740 486 1306 1304 1155 2162 1983 1971 2229 2631 3024 3350 3169 2832 2845 2860 2925 2908 2947 2733 2620 2831 2603 2753 2340 1683 1817 1608 1499 1489
0 0 0 1 116 53 50 0 0 1 42 78 394 301 165 179 892 922 1086 746 781 1703 1433 899 2114 2165 1884 2118 2407 2836 3312 3401 3258 3143 3177 3035 3088 2913 2789 2855 2709 2556 2752 2519 2072 1663 1730 1668 1618
0 0 0 0 22 10 3 0 0 1 34 60 218 113 105 743 1051 1179 1187 1020 1062 1729 1440 1663 2458 2402 2094 1932 2159 2461 2843 3173 3225 3171 3167 3049 3004 3050 2983 2924 2833 2541 2656 2441 2067 1922 2063 1708 1568
0 0 0 11 0 0 0 0 0 11 288 180 297 183 293 864 1297 1776 1526 1244 1660 1575 1517 2195 2530 2347 2053 1883 1988 2236 2335 2673 2893 2974 3036 2995 2902 3007 3004 2851 2829 2518 2358 2135 1978 2111 1728 1486 1450
0 0 0 0 0 0 0 0 20 153 265 274 450 199 516 1896 2118 2070 1928 1499 1499 1669 1750 2038 2643 2147 1868 1908 1913 2082 2392 2571 2619 2500 2511 2607 2755 2755 2704 2642 2440 2288 2227 2082 1931 2139 2146 1944 1476
0 0 4 0 0 0 0 0 1 218 364 609 374 309 710 2007 2364 2374 2219 1928 1754 1891 1808 2205 2492 2402 2235 1901 2026 2251 2553 2590 2615 2526 2507 2506 2400 2421 2387 2374 2354 2343 2590 2667 2615 2639 2593 2496 2088
0 0 0 0 0 0 0 0 81 198 234 534 436 336 758 2067 2364 2338 2410 2310 2026 1755 1690 2107 1917 2264 2211 2071 2157 2228 2379 2486 2638 2724 2705 2622 2282 2248 2156 2178 2181 2230 2670 2745 2724 2677 2651 2597 2464
0 0 0 0 0 0 0 0 0 0 199 415 496 631 906 2285 2228 2438 2392 2011 1611 1346 1439 1679 1933 1848 1625 1361 2110 2405 2542 2458 2517 2562 2538 2450 2519 2506 2369 2697 2336 2281 2380 2402 2738 2693 2609 2510 2389
0 0 0 0 0 0 0 0 21 34 172 1012 1160 1343 1811 2056 2128 2122 2030 1833 1589 1406 1350 1199 1366 1564 1640 1327 2282 2092 2268 2577 2573 2417 2498 2345 1341 1397 1529 1752 2003 2249 2106 2297 2648 2689 2619 2509 2401
0 0 0 0 0 0 38 242 368 275 563 950 803 1432 1732 2030 2038 1944 1899 1774 1639 1613 1439 1241 1235 1315 1554 1692 2000 2189 1860 1782 1492 1309 1459 1883 1290 1258 1446 1791 1923 2087 2149 2231 2624 2730 2651 2305 646
0 0 0 0 0 0 0 364 875 672 1164 1242 848 1502 1876 2072 2000 1132 1284 1126 1061 1036 1211 1512 1560 1705 1441 1539 1846 2032 1902 1890 2164 2323 2004 1950 1356 1395 1510 1178 1153 1567 1941 1708 1556 1694 1676 822 643
0 0 0 0 3 11 347 512 1258 1548 1511 1484 1760 1938 1980 2466 2613 2496 2453 2187 2020 1557 1810 1965 1593 1967 1764 1455 1812 1942 1999 2248 2242 2091 2385 2089 1965 1563 1669 1253 839 861 780 661 687 559 516 594 630
0 0 0 45 203 358 766 1595 2006 2130 2286 2405 2489 2499 2467 2451 2541 2338 1664 1485 1539 1421 1197 1483 1871 2130 2372 2091 1655 1704 1736 1631 1659 1729 1582 1316 1315 1355 1243 1093 947 824 541 515 468 449 426 450 493
0 0 0 119 348 419 1011 1349 1573 2408 2565 2651 2636 2502 2263 1792 1594 1573 1413 1126 1149 1775 1286 1195 1136 1550 1904 2079 1886 1794 2348 2236 1127 914 816 1206 1107 1184 957 834 837 832 573 429 435 377 386 413 374
0 0 75 251 381 484 651 1688 2212 2464 2592 2485 2080 2050 1137 727 585 517 479 456 427 1051 1280 708 297 647 1398 1395 1365 1594 915 462 1235 852 1096 1253 1490 1137 1104 968 872 619 475 775 1059 1075 1111 871 669
0 0 26 149 270 590 829 1778 2121 2342 2361 2258 2104 866 431 279 201 195 87 98 248 173 232 617 576 1190 1958 1803 1709 1325 1228 1095 1117 822 976 745 737 736 844 834 895 664 687 568 417 513 725 1064 1754
0 0 0 167 313 601 1030 1726 2165 2068 2190 2119 1089 285 175 45 33 70 15 35 70 70 30 72 334 350 501 1009 904 1001 1333 1333 1183 850 659 726 820 975 846 895 1004 753 448 257 257 249 337 403 713
0 0 16 178 640 772 1306 1929 1960 1599 1467 1144 507 238 7 0 0 0 6 4 0 17 22 39 44 98 132 171 143 291 176 589 1147 1140 1081 1248 1163 716 901 683 632 508 448 229 139 78 67 136 175
0 0 162 611 711 1070 1738 1754 1739 1178 700 471 223 19 9 20 13 13 0 0 0 0 0 0 0 0 0 0 0 0 0 7 11 68 185 757 1023 869 655 821 785 401 494 538 372 300 226 114 147
0 1 182 266 368 983 1444 1349 1468 1482 785 342 222 106 89 45 9 1 1 0 0 0 0 0 0 0 0 0 0 0 0 0 1 0 8 5 25 395 869 364 404 458 813 639 428 396 538 469 486
0 1 53 217 347 592 845 950 1082 1398 1219 645 499 218 60 46 21 16 2 0 0 0 0 0 0 0 0 0 0 0 0 10 0 0 4 24 24 29 224 526 849 708 853 752 598 733 572 774 659
0 0 0 115 169 280 467 515 1167 1017 1032 888 940 427 160 69 25 15 4 4 3 4 12 5 0 0 0 25 17 49 10 2 0 4 16 11 13 36 69 213 344 537 464 200 147 378 115 588 766
0 0 0 23 29 119 250 215 1246 1061 1081 1128 895 427 336 142 14 8 15 1 0 0 0 0 0 4 28 24 51 36 33 8 0 0 10 145 53 15 31 173 300 441 379 356 232 88 154 282 477
0 0 4 15 21 99 319 272 828 1174 1183 999 1067 601 262 120 45 23 20 3 0 0 0 0 0 2 22 29 44 56 54 44 18 23 1 0 0 9 40 79 309 392 453 421 405 402 116 89 157
0 0 23 29 62 230 288 168 968 761 754 831 851 594 368 142 47 41 38 25 1 0 0 1 3 13 17 41 49 59 90 88 74 60 13 18 10 23 101 79 151 342 412 409 323 268 170 104 255
0 0 0 0 7 96 194 156 885 448 450 673 962 548 202 73 45 36 22 16 1 0 0 0 0 20 53 70 91 113 94 76 75 63 71 62 9 16 7 66 108 273 331 280 404 235 171 149 156
1 0 0 0 2 0 98 338 368 240 342 695 784 359 107 44 11 37 22 11 6 15 0 0 9 48 53 68 80 68 62 39 43 58 0 2 2 0 8 6 26 36 55 22 52 259 378 204 123
0 0 2 18 0 0 20 4 336 351 312 114 217 72 59 53 52 32 29 4 5 0 2 75 129 137 141 127 91 64 27 39 21 0 0 2 4 13 19 35 30 46 46 47 8 10 23 99 104
0 0 0 0 0 0 0 260 16 46 29 24 15 25 13 53 30 4 6 3 13 12 53 154 179 175 127 99 78 17 33 20 6 0 0 3 7 7 16 25 16 2 1 2 2 3 3 48 12
0 0 0 0 2 0 0 51 0 0 0 0 0 2 8 0 0 1 16 32 26 95 148 175 205 162 151 101 23 0 2 4 4 4 3 0 0 0 0 4 0 0 0 0 0 3 1 14 25

GFSSGP_con_mucape_345.txt.gz
CAPE
69 0 22 0 110 185 113 52 55 59 55 35 60 162 105 69 204 495 1109 903 1056 1531 674 900 2234 1984 2210 2685 2934 3520 3449 3200 2796 2870 2913 2715 2791 2527 2341 2580 2344 2454 2407 1857 1792 2102 1766 1601 2000
11 0 0 0 123 152 40 5 3 6 1 16 26 0 119 594 308 589 1097 914 1548 1539 593 759 2167 2308 2231 2569 2882 3378 3400 3166 3005 3104 2961 2916 3004 2808 2311 2490 2368 2477 2661 2243 1639 1785 1506 1274 1278
33 0 0 5 126 44 14 0 3 0 0 0 20 2 71 746 859 832 953 708 1669 1601 914 1691 2246 2364 2121 2338 2715 3072 3465 3387 3309 3279 3111 3138 3154 3049 2847 2871 2643 2428 2718 2608 2185 1679 1629 1585 1525
0 0 0 17 40 0 0 0 1 119 61 62 125 132 1187 1110 1079 928 1069 1015 1001 1436 1807 2043 2400 2147 1975 2172 2389 2741 3071 3368 3427 3268 3250 3170 3054 3200 3127 2899 2703 2462 2646 2620 2376 2088 1888 1674 1532
0 0 10 82 8 0 0 0 37 151 246 20 132 188 1589 1600 1543 1568 1390 968 670 969 2410 1433 2342 2047 1986 1964 2092 2266 2622 2978 3280 3094 2809 2760 2746 2757 2294 2348 2254 2333 2529 2455 2266 2144 2122 2044 1749
0 0 63 50 3 0 0 0 61 171 171 192 59 289 1648 1923 1920 1882 1493 1206 606 995 1848 1255 2191 2102 2012 2011 2006 2096 2285 2388 2555 2765 2772 2634 2603 2402 2404 2352 2248 2204 2277 2355 2378 2705 2711 2585 2423
0 29 6 2 7 0 0 0 51 72 113 113 165 923 1836 1811 1831 1970 1937 1860 1534 1173 1733 1640 1030 1530 2037 2086 2182 2332 2421 2375 2405 2403 2316 2235 2115 2097 2105 2231 2255 2298 2341 2425 2482 2851 2847 2696 2572
0 0 0 0 5 0 0 8 3 0 267 573 997 1528 1833 2061 1992 2122 2051 1785 1496 1486 1501 1737 1795 1473 955 731 2227 2279 2315 2308 2351 2360 2372 2362 2301 2239 2132 2410 2239 2256 2236 2314 2611 2714 2825 2799 2664
0 0 4 0 0 0 1 66 54 2 591 1088 1447 1922 2053 2070 1967 1944 1889 1731 1747 1568 1565 1542 1331 1641 1311 1193 1774 2160 2281 2279 2269 2165 2389 2125 711 995 1202 1461 1785 2481 2655 2636 2718 2750 2703 2594 2488
0 0 0 0 0 0 7 85 104 334 1103 642 1539 1920 2016 2053 2086 1942 1722 1396 1250 1543 1620 1649 1476 1523 1279 811 2731 2538 1759 1402 1261 1176 1718 2028 1145 1280 998 1729 2465 2663 2809 2726 2664 2732 2721 2448 511
0 0 0 0 0 0 7 432 685 1240 1526 1484 1683 2098 2318 2041 1775 1581 1938 1974 1012 1266 1808 1828 2093 1928 1529 2080 1688 1236 1547 1846 2239 1978 1941 1917 1554 1114 1046 884 1320 1670 2206 1518 1736 1473 1256 391 243
0 0 0 0 0 19 67 934 1631 1665 1795 1988 2201 2476 2591 2674 2472 2018 1593 1338 1218 1060 1530 2153 2393 2532 2559 2179 1948 1496 1157 2197 2414 2625 2712 4062 2449 2425 1719 1379 1255 1592 1228 1804 1635 951 1581 1497 1254
0 0 0 0 13 302 951 1569 1925 2072 2154 2252 2408 2399 2215 1724 1408 783 711 700 664 970 1514 1483 1908 1627 1474 1727 1176 1194 1159 701 751 810 1593 2074 2298 2335 1833 1770 1084 543 346 413 371 454 714 491 410
0 0 0 5 95 529 1137 1287 1914 2439 2367 2225 1569 1172 1014 826 624 459 565 419 472 658 472 797 1122 1365 1302 2146 1980 1108 930 1523 1135 545 210 1878 1670 1532 1237 1271 888 635 456 379 263 360 648 539 446
0 0 0 6 201 671 1715 1855 2217 2300 2083 1925 1190 696 509 258 199 302 292 246 214 328 369 248 826 1630 1696 1671 1703 1892 1541 1338 1663 824 1219 1102 905 1589 1694 1003 983 1415 1366 1288 1125 1103 1124 875 918
0 1 25 81 79 232 608 1760 1875 1982 1930 1128 622 336 252 213 91 165 126 120 141 172 372 458 231 303 691 760 623 588 896 1136 1245 1238 1032 963 831 1193 1545 1684 1437 771 950 940 941 1110 1095 668 1236
0 13 61 78 34 188 179 1347 1576 1604 1802 806 274 241 166 183 118 78 102 135 134 139 173 178 243 181 134 135 57 88 649 561 593 656 1115 1158 1084 1082 1479 1984 1367 1877 846 752 552 494 737 622 497
1 0 22 54 122 67 298 1279 1390 1647 1452 649 199 155 26 75 41 63 86 77 90 40 43 33 7 15 98 8 28 0 0 6 29 106 153 584 332 165 1006 1048 1371 769 895 1374 1140 574 452 374 403
0 6 61 291 261 316 771 1328 1354 1365 1056 431 147 53 21 9 28 43 31 10 1 1 0 0 0 0 1 0 0 0 0 0 0 4 31 30 22 18 477 251 1078 1064 537 602 986 1161 717 548 601
0 25 110 183 174 305 909 1235 1375 1002 563 267 158 101 90 117 116 87 45 16 1 1 4 0 0 0 0 0 0 4 2 0 1 9 101 248 71 193 259 611 402 853 1063 650 354 307 878 970 1376
6 43 31 112 124 122 446 905 1006 1301 662 545 454 235 198 219 209 222 132 75 42 21 22 15 9 11 15 8 33 29 29 9 1 7 21 94 60 123 393 461 449 885 829 968 472 579 201 269 548
9 0 0 0 0 56 375 415 552 1374 1055 1006 777 619 326 266 268 163 43 23 3 4 66 22 33 30 42 77 149 310 94 81 56 42 58 146 204 125 134 249 421 502 884 640 768 754 463 270 146
0 0 0 0 5 31 84 246 1198 799 736 980 813 680 544 385 184 72 24 11 7 2 9 93 68 64 77 87 136 99 160 94 66 48 170 256 209 272 163 101 155 354 157 443 525 570 520 614 506
0 0 0 0 0 76 226 139 593 542 792 1038 742 638 428 283 162 52 21 3 3 0 0 35 19 49 130 89 127 218 155 145 85 99 67 27 34 25 23 10 18 85 251 382 502 543 560 541 457
0 0 53 66 48 201 299 1 792 508 583 859 691 420 462 210 101 31 9 1 5 0 0 1 50 53 254 142 178 178 179 213 110 62 31 31 11 19 0 0 5 69 237 404 354 489 452 445 217
0 0 6 6 54 78 88 401 611 390 549 644 760 430 278 220 32 20 0 5 7 5 7 7 48 111 158 146 173 180 127 37 48 42 5 0 3 0 0 1 9 67 83 262 260 455 199 128 125
9 38 0 2 30 80 249 394 408 263 296 540 613 419 90 7 0 43 9 3 5 8 6 38 71 95 51 94 121 128 60 72 74 60 2 0 1 10 13 15 15 14 35 19 45 0 0 21 26
0 0 6 81 15 14 53 531 527 298 316 278 240 111 10 0 0 0 0 6 9 14 55 74 56 50 74 68 65 23 45 32 0 1 0 0 0 0 0 8 16 15 8 5 1 0 0 0 0
5 43 9 0 4 25 31 302 161 223 216 193 96 10 6 3 1 1 10 28 51 55 76 115 50 107 87 47 34 27 47 40 3 29 0 0 0 1 5 0 7 0 0 0 1 6 6 3 2
0 0 0 0 45 2 9 169 58 50 27 2 3 9 8 7 6 15 33 29 27 56 34 108 193 109 54 1 63 71 37 7 5 3 48 0 0 0 0 0 5 8 8 0 0 1 9 5 5